Temperature
15 15 15 15 15 15 15 15 15 15 15 15 15 15 15 15 15 15 15 15 15 15 15 15 15 15 15 15 15 15 15 15 15 15 15 15 15 15 15 15 15 15 15
15 15 15 15 15 15 15 15 15 14 14 14 15 15 15 15 15 14 14 14 14 14 14 14 14 14 14 14 14 14 14 14 14 15 15 15 15 15 15 15 15 15 15
15 15 15 14 14 14 14 14 14 14 14 14 14 14 14 14 14 14 14 14 14 14 14 14 14 14 14 14 14 14 14 14 14 14 14 15 15 15 15 15 15 15 15
14 14 14 14 14 14 14 14 14 14 14 14 14 14 14 14 14 14 14 14 14 14 14 14 14 14 14 14 14 14 14 14 14 14 14 14 15 15 15 15 15 15 15
14 14 14 14 14 14 14 14 14 14 14 14 14 14 14 14 14 14 14 14 14 13 14 14 14 14 14 14 14 14 14 14 14 14 14 14 14 14 14 14 14 14 14
14 14 14 14 14 14 13 13 13 13 13 13 14 14 14 14 14 14 14 13 13 13 13 13 13 13 13 13 13 13 13 13 13 14 14 14 14 14 14 14 14 14 14
14 14 14 14 13 13 13 13 13 13 13 13 13 13 14 14 14 13 13 13 13 13 13 13 13 13 13 13 13 13 13 13 13 13 13 13 13 13 13 13 13 13 13
14 13 13 13 13 13 13 13 13 13 13 13 13 13 14 14 13 13 13 13 13 13 13 13 13 13 12 12 13 13 13 13 13 13 13 13 13 13 13 13 13 13 13
13 13 13 13 13 13 13 13 13 12 13 13 13 13 14 15 13 13 13 13 13 13 12 12 12 12 12 12 12 13 13 13 13 13 13 13 13 13 13 13 13 13 13
13 13 13 13 13 13 13 12 12 12 12 12 12 13 13 13 13 13 13 13 12 12 12 12 12 12 12 12 12 13 13 13 13 13 13 13 13 12 12 12 12 13 13
13 13 13 13 13 12 12 12 12 12 12 12 12 12 12 12 13 13 13 13 12 12 12 12 12 12 12 12 12 12 13 13 13 13 13 13 12 12 12 12 12 12 12
13 13 13 13 13 12 12 12 12 12 12 12 12 12 12 12 12 13 13 13 12 12 12 12 12 12 12 12 12 12 13 13 13 13 13 12 12 12 12 12 12 12 12
13 13 13 13 12 12 12 12 12 12 12 12 12 12 12 12 12 12 12 12 12 12 11 11 12 12 11 12 12 12 12 12 12 12 12 13 12 12 12 12 12 12 12
13 12 12 12 12 12 12 12 12 12 12 12 12 12 11 11 11 11 12 12 12 12 12 12 11 11 11 11 12 12 12 12 12 12 12 12 12 12 12 12 12 12 12
12 12 12 12 12 12 12 12 12 11 11 11 11 11 11 11 11 11 11 11 11 12 12 11 11 11 11 11 12 12 11 12 12 12 12 12 12 12 12 12 12 12 12
12 12 12 12 12 12 12 12 11 11 11 11 11 11 11 11 11 11 11 11 11 11 11 11 11 11 11 11 11 11 11 12 12 12 12 12 12 12 12 12 12 12 11
12 12 12 12 12 12 12 11 11 11 11 11 11 11 11 11 11 11 11 11 10 10 11 10 10 10 10 11 11 11 11 11 11 11 11 11 11 11 11 12 12 11 11
12 12 12 12 12 12 11 11 11 11 11 11 11 11 10 10 10 10 10 10 10 10 10 10 10 10 10 10 10 11 10 11 11 11 11 11 11 11 11 11 11 11 11
12 12 12 12 11 11 11 11 11 11 11 10 10 10 10 10 10 10 10 10 10 10 10 10 10 10 10 10 10 10 10 10 10 10 11 11 11 11 11 11 11 11 11
12 12 11 11 11 11 11 11 11 11 11 10 10 10 10 10 10 10 10 10 10 10 9 9 10 10 10 10 10 10 10 10 10 10 10 10 10 10 10 11 11 10 10
11 11 11 11 11 11 11 11 10 10 10 10 10 10 10 10 10 10 10 9 9 9 9 9 9 9 9 9 9 9 9 9 9 9 9 9 10 10 10 10 10 10 10
11 11 11 11 11 11 11 10 10 10 10 10 10 10 10 10 10 10 9 9 9 9 9 9 9 9 9 9 9 9 9 9 8 9 9 9 9 9 9 9 9 10 9
11 10 10 10 10 10 10 10 10 10 9 9 9 9 9 9 9 9 9 9 9 9 9 9 9 9 9 9 8 8 8 8 8 8 8 8 8 8 8 8 9 9 9
10 10 10 10 10 10 10 10 10 9 9 9 9 9 9 9 9 9 8 8 8 8 9 8 8 8 8 8 8 8 8 8 7 8 8 8 8 8 8 8 8 8 8
10 10 10 10 10 10 10 9 9 9 9 8 9 9 8 8 9 9 8 8 8 8 8 8 8 8 8 8 8 7 7 7 7 7 7 7 7 7 7 7 7 8 8
10 10 10 9 9 9 9 9 9 9 8 8 8 8 8 8 8 8 8 8 7 7 8 8 8 7 7 7 7 7 7 7 7 7 7 7 6 6 6 7 7 7 7
Wind_Speed
3 3 3 3 3 3 3 3 3 4 4 4 5 4 4 5 5 5 6 9 9 9 10 11 11 11 11 10 10 10 9 9 9 9 8 8 8 8 7 6 6 6 6
3 3 3 3 3 3 3 3 3 3 3 4 4 5 4 4 4 5 5 7 9 9 9 10 10 11 11 10 10 10 9 8 8 8 8 8 8 8 8 7 6 6 6
3 3 3 3 3 3 3 3 3 3 3 3 3 4 4 4 4 4 5 4 5 7 8 8 9 9 9 9 9 8 8 7 7 7 7 7 8 8 8 7 7 6 6
4 3 2 3 3 3 3 2 2 2 2 2 2 2 2 3 3 3 3 3 4 4 6 8 8 8 8 8 8 7 7 7 7 7 7 7 7 7 7 7 7 6 6
3 3 3 2 3 2 2 2 2 2 2 2 2 2 2 2 2 2 3 3 4 3 4 6 6 7 8 8 8 7 7 8 7 7 8 7 7 7 7 7 7 6 6
3 3 2 2 3 2 2 2 2 2 2 1 1 1 1 1 1 1 2 2 3 4 4 4 3 4 6 7 7 7 7 7 7 7 7 7 7 7 7 7 6 6 6
2 3 2 2 2 2 2 2 2 2 1 0 0 1 1 1 1 1 1 1 3 3 3 3 3 3 3 5 6 7 7 7 6 6 6 7 7 7 7 7 7 6 6
2 2 2 2 1 1 1 1 1 0 1 1 2 1 1 2 1 1 1 1 2 2 2 3 3 3 3 3 6 6 7 6 5 6 6 6 6 6 7 7 6 7 6
1 1 1 1 1 1 1 0 0 0 1 1 2 2 2 1 0 1 1 0 1 1 2 2 3 3 3 3 3 5 6 5 5 5 5 5 5 5 6 6 6 6 7
2 1 1 1 1 1 1 1 1 1 2 1 1 2 3 2 2 1 1 0 1 1 2 2 2 2 3 3 3 5 6 6 5 4 5 5 4 4 4 5 6 6 5
2 2 2 2 2 2 2 1 1 2 2 2 2 1 1 1 3 2 1 1 0 0 1 2 2 2 2 2 3 5 5 6 5 4 4 4 4 3 3 4 4 5 5
2 3 3 3 3 2 2 2 2 2 2 2 2 2 2 2 2 2 2 2 2 1 1 1 1 1 1 1 2 4 4 5 5 4 4 4 3 3 3 3 3 4 4
3 4 4 4 3 3 3 3 3 3 3 3 3 2 2 2 2 2 3 3 3 2 1 1 1 1 1 1 2 3 3 4 5 4 4 4 3 3 3 3 3 3 4
4 4 4 4 4 4 3 3 3 3 3 3 3 2 2 2 2 2 3 3 3 3 3 2 1 1 2 2 3 4 2 3 4 4 4 4 3 3 3 3 3 3 3
4 4 5 5 5 4 4 4 4 4 4 4 3 3 3 3 3 3 3 4 4 4 3 1 2 1 2 2 3 3 3 2 3 4 4 4 4 4 3 3 3 3 3
5 5 5 5 5 5 5 4 4 4 4 4 3 4 3 3 3 3 4 4 4 4 4 2 2 3 3 3 3 3 3 1 1 3 3 4 4 3 3 3 3 3 3
6 6 6 6 6 6 6 5 5 5 5 5 5 5 5 4 4 4 4 4 4 4 4 4 3 3 4 3 3 3 3 3 1 1 2 3 4 4 4 3 3 3 3
7 7 6 6 6 6 6 6 6 6 6 6 5 5 5 4 5 4 4 4 4 4 5 5 4 4 4 4 3 3 3 3 3 0 1 3 3 3 3 3 3 3 3
7 7 7 7 7 7 7 7 7 7 7 6 6 6 6 6 6 5 5 5 4 4 5 5 5 4 4 3 3 3 3 3 3 2 2 3 3 3 3 3 3 4 3
8 8 8 7 7 7 7 7 7 7 7 7 6 6 7 7 7 6 6 6 5 5 5 5 5 4 4 4 4 3 3 3 3 3 3 3 2 2 2 2 3 3 4
7 7 7 7 7 7 6 7 7 7 7 7 7 7 7 6 5 6 5 5 5 5 5 5 5 5 4 3 4 4 4 4 3 3 3 2 2 1 1 2 2 2 3
7 7 7 7 7 6 4 5 7 7 7 8 7 7 7 6 6 7 7 7 7 7 6 6 5 6 6 5 4 4 4 4 4 2 3 3 2 2 2 2 1 1 2
6 7 7 7 7 6 5 7 8 8 8 8 7 7 6 5 6 7 7 8 8 8 8 8 7 7 6 5 5 5 5 5 5 4 4 4 3 3 2 1 1 1 0
6 6 7 7 7 5 5 6 8 9 8 8 8 8 8 7 6 7 7 7 7 7 7 7 7 6 6 5 5 6 6 5 5 3 4 4 4 4 3 2 1 1 1
6 6 6 7 7 6 5 6 7 7 8 8 8 8 8 8 4 5 7 7 7 6 5 6 5 5 4 5 6 5 5 4 5 4 3 4 4 4 4 3 1 2 3
5 5 6 6 6 6 4 5 7 5 7 7 6 6 6 6 5 6 7 7 7 6 6 5 6 7 7 6 7 7 6 5 5 4 3 3 4 3 3 3 2 3 2
Wind_Direction
72 73 75 70 66 67 67 54 56 63 62 61 60 58 59 60 61 63 70 66 51 46 49 49 49 53 55 55 53 53 54 52 51 48 45 43 41 39 36 40 44 43 45
70 72 73 66 62 58 57 63 66 70 69 66 58 52 51 54 54 60 63 73 66 54 52 51 51 51 52 52 51 50 50 52 49 47 44 40 37 35 34 37 39 41 42
64 68 69 72 66 62 62 59 64 61 67 70 61 51 48 47 47 49 54 49 63 69 62 55 53 50 49 49 49 49 49 50 47 45 41 38 35 34 34 34 34 36 38
62 64 69 69 63 62 60 62 55 64 65 60 52 45 47 52 45 45 53 58 51 52 69 65 54 49 47 46 44 46 48 48 46 44 40 36 33 37 38 35 35 35 37
69 71 65 65 68 66 59 58 55 56 65 57 48 35 29 43 38 42 49 51 53 54 60 83 76 54 44 42 40 46 48 48 46 48 44 38 38 38 37 34 35 36 39
74 76 84 82 75 78 64 61 73 64 55 53 52 44 39 46 28 23 31 45 42 47 45 53 73 83 64 45 36 37 40 41 42 45 42 38 38 37 34 32 33 36 40
91 91 94 90 74 77 63 57 74 98 88 29 353 61 113 96 49 66 29 32 57 49 44 53 43 36 68 76 46 30 30 30 33 35 33 33 34 33 33 33 31 34 36
109 112 124 121 118 83 75 71 78 85 76 315 308 286 222 172 121 78 77 36 34 55 38 36 42 38 22 29 59 38 21 15 22 25 23 29 30 29 30 27 27 30 29
144 154 147 135 142 171 150 146 157 230 273 300 318 307 291 317 56 160 69 124 55 30 33 30 31 28 24 18 28 48 22 8 12 15 16 17 19 23 23 22 24 25 24
174 192 186 186 173 194 196 223 251 266 269 268 286 324 328 339 279 245 193 117 46 27 19 24 23 23 21 20 34 29 16 1 360 4 4 5 10 18 21 19 17 18 15
192 208 212 194 204 211 220 227 241 261 258 278 278 273 294 291 280 284 271 275 280 6 8 357 360 14 14 12 13 24 7 353 347 350 353 352 352 359 6 7 5 7 5
205 217 221 214 222 227 228 231 231 242 263 269 270 267 275 282 291 289 283 284 292 315 332 349 337 1 350 343 8 11 348 343 341 338 336 333 337 340 343 344 346 353 353
210 218 217 223 222 228 230 230 237 239 239 247 259 269 280 288 290 287 288 291 288 282 268 249 279 324 323 324 349 339 321 324 325 321 319 314 311 314 321 327 331 332 333
220 220 217 221 223 225 226 224 235 235 239 235 242 252 266 276 279 282 286 286 279 267 254 258 266 299 329 330 358 305 299 320 318 317 309 302 293 288 290 300 305 307 308
228 228 221 220 220 220 225 226 232 231 237 242 241 240 248 260 266 273 271 271 278 277 271 270 288 308 316 330 331 309 310 351 316 318 312 304 294 285 277 274 280 287 294
226 223 225 224 220 216 218 222 233 236 236 236 244 250 248 251 255 257 258 261 262 269 274 282 282 291 304 303 321 310 307 280 273 315 317 312 302 293 282 272 271 274 281
228 227 225 223 222 218 218 219 227 227 236 238 232 236 241 248 245 243 245 248 251 254 258 268 277 283 285 297 307 304 306 298 282 327 324 320 315 305 289 282 275 264 267
231 231 228 226 223 223 224 224 225 227 233 239 241 240 244 238 244 251 248 247 247 251 255 265 271 279 282 291 299 300 298 297 291 28 303 312 315 310 303 291 271 253 242
233 231 230 230 227 226 228 229 227 230 235 239 243 243 245 241 239 239 243 249 249 248 251 256 264 273 277 283 290 292 290 292 290 279 263 271 286 291 297 289 271 253 243
233 233 233 233 232 230 231 232 232 236 240 240 244 248 249 247 244 243 243 245 248 247 248 251 260 262 265 275 277 281 286 286 285 294 302 292 269 255 272 284 272 253 243
240 237 236 235 233 233 233 232 233 237 242 244 244 245 248 256 272 261 256 250 246 247 251 253 259 261 260 261 268 270 276 283 284 289 295 293 288 290 269 242 259 258 241
242 241 239 235 234 235 218 228 242 238 242 245 247 248 245 238 238 239 249 255 258 254 254 255 259 260 262 266 272 265 269 275 282 292 285 290 298 300 303 320 41 193 233
241 240 238 237 240 237 211 216 227 238 245 247 245 245 244 241 236 238 227 225 239 249 255 256 261 264 265 267 270 265 264 271 279 285 282 281 284 287 301 336 58 105 223
239 240 241 239 242 241 216 221 222 232 241 245 246 245 244 242 240 243 242 238 240 239 239 243 254 264 270 274 268 268 268 265 266 266 267 275 282 284 294 288 164 182 256
241 240 241 241 241 235 211 218 226 239 239 242 242 244 247 248 236 236 241 243 245 245 230 234 259 270 288 279 273 261 255 253 262 260 256 266 275 284 281 268 237 209 233
243 244 244 243 242 244 216 218 229 238 241 242 242 240 237 245 234 236 239 242 243 246 246 238 234 234 243 234 236 246 249 249 258 260 247 252 258 270 273 265 272 272 243
Height
1542 1542 1542 1541 1541 1540 1540 1539 1539 1538 1539 1539 1539 1539 1539 1539 1539 1539 1538 1536 1536 1534 1533 1532 1530 1529 1528 1528 1528 1528 1528 1527 1527 1527 1526 1526 1525 1525 1524 1524 1524 1523 1523
1543 1543 1542 1542 1541 1541 1541 1540 1540 1540 1540 1540 1540 1540 1540 1540 1540 1539 1538 1537 1536 1535 1534 1533 1532 1531 1530 1530 1529 1529 1528 1528 1528 1527 1527 1526 1526 1525 1524 1524 1524 1523 1523
1543 1543 1543 1542 1542 1542 1542 1541 1541 1540 1540 1540 1540 1540 1540 1540 1540 1540 1539 1538 1537 1536 1535 1534 1533 1532 1532 1531 1530 1529 1529 1528 1528 1527 1527 1526 1525 1525 1524 1524 1524 1524 1523
1544 1543 1543 1543 1542 1542 1542 1542 1542 1541 1541 1541 1541 1541 1541 1540 1540 1540 1540 1539 1538 1537 1536 1535 1534 1534 1533 1532 1531 1530 1529 1528 1528 1527 1527 1526 1525 1525 1524 1524 1524 1524 1523
1544 1543 1543 1543 1543 1543 1543 1542 1542 1542 1542 1541 1541 1541 1540 1540 1540 1540 1540 1540 1539 1538 1537 1535 1535 1534 1533 1532 1531 1530 1529 1529 1528 1528 1527 1526 1525 1525 1524 1524 1524 1524 1523
1544 1543 1543 1543 1543 1543 1543 1543 1542 1542 1541 1541 1541 1541 1540 1540 1540 1540 1540 1539 1539 1538 1537 1536 1536 1535 1534 1533 1531 1531 1530 1529 1529 1528 1527 1526 1525 1525 1524 1524 1524 1523 1523
1543 1543 1543 1543 1543 1543 1543 1543 1542 1542 1542 1541 1542 1541 1541 1540 1540 1540 1540 1539 1539 1538 1538 1537 1536 1535 1534 1533 1532 1531 1530 1530 1529 1528 1527 1526 1526 1525 1525 1524 1524 1523 1523
1543 1543 1543 1543 1543 1542 1542 1542 1542 1542 1541 1541 1542 1541 1541 1542 1540 1540 1539 1539 1539 1538 1537 1537 1536 1535 1534 1533 1532 1531 1530 1530 1529 1528 1527 1526 1526 1525 1525 1524 1524 1523 1522
1542 1542 1543 1543 1542 1542 1542 1542 1542 1542 1542 1541 1541 1542 1541 1540 1540 1540 1539 1539 1538 1537 1537 1536 1536 1535 1534 1533 1532 1531 1530 1529 1529 1528 1527 1527 1526 1525 1525 1524 1523 1523 1522
1542 1542 1542 1542 1542 1542 1542 1542 1541 1541 1541 1541 1540 1540 1541 1540 1541 1540 1540 1539 1537 1537 1537 1536 1535 1535 1534 1533 1532 1530 1530 1529 1528 1528 1527 1526 1526 1525 1524 1524 1523 1522 1522
1541 1541 1541 1541 1541 1541 1541 1541 1540 1540 1540 1540 1540 1540 1539 1539 1539 1539 1539 1538 1537 1537 1536 1535 1534 1534 1533 1532 1531 1530 1529 1528 1528 1527 1527 1526 1525 1524 1524 1523 1522 1522 1521
1540 1540 1540 1540 1540 1540 1540 1540 1539 1539 1539 1538 1538 1539 1539 1539 1539 1538 1538 1537 1537 1536 1535 1534 1533 1533 1532 1531 1530 1529 1528 1528 1527 1526 1526 1525 1524 1523 1523 1522 1522 1521 1520
1538 1538 1538 1538 1538 1538 1538 1538 1538 1538 1537 1537 1537 1537 1537 1537 1537 1537 1537 1536 1536 1535 1534 1533 1532 1532 1531 1530 1529 1528 1527 1527 1526 1525 1524 1524 1523 1522 1522 1521 1520 1520 1519
1536 1536 1536 1537 1537 1537 1537 1536 1536 1536 1536 1536 1536 1535 1535 1536 1536 1535 1536 1535 1534 1534 1533 1533 1531 1530 1530 1529 1528 1527 1526 1525 1525 1524 1523 1522 1521 1521 1520 1520 1519 1518 1518
1534 1534 1534 1534 1535 1534 1534 1534 1534 1534 1534 1534 1534 1534 1534 1534 1533 1533 1533 1533 1534 1532 1532 1531 1530 1529 1528 1527 1526 1525 1525 1524 1523 1522 1521 1520 1520 1519 1518 1518 1517 1517 1516
1531 1532 1532 1532 1532 1532 1532 1532 1532 1532 1532 1532 1532 1532 1531 1531 1531 1531 1531 1531 1531 1531 1530 1529 1528 1527 1526 1525 1524 1523 1523 1522 1521 1520 1519 1518 1518 1517 1516 1516 1515 1515 1515
1529 1529 1529 1529 1530 1530 1530 1530 1530 1529 1530 1530 1530 1529 1529 1529 1529 1529 1529 1528 1528 1528 1527 1527 1526 1525 1524 1523 1522 1521 1521 1520 1519 1518 1517 1516 1516 1515 1514 1514 1513 1513 1512
1526 1526 1526 1526 1527 1527 1527 1527 1526 1527 1527 1527 1527 1527 1527 1526 1526 1526 1526 1526 1526 1525 1525 1524 1523 1522 1522 1521 1520 1519 1518 1518 1517 1515 1515 1514 1513 1512 1512 1511 1511 1510 1510
1522 1523 1523 1523 1523 1523 1523 1523 1523 1523 1524 1524 1524 1524 1524 1524 1523 1523 1523 1523 1523 1522 1522 1521 1520 1520 1519 1518 1517 1516 1516 1515 1514 1513 1512 1511 1510 1510 1509 1509 1508 1508 1508
1518 1519 1519 1519 1519 1519 1519 1520 1520 1520 1520 1520 1520 1520 1520 1520 1520 1520 1520 1520 1520 1519 1519 1519 1518 1517 1516 1516 1515 1514 1513 1513 1512 1511 1510 1509 1508 1507 1506 1506 1505 1505 1505
1514 1515 1515 1515 1515 1515 1515 1515 1516 1516 1516 1516 1516 1516 1516 1516 1516 1516 1516 1516 1516 1516 1516 1515 1515 1514 1514 1513 1512 1512 1511 1510 1509 1508 1507 1506 1506 1505 1504 1503 1503 1502 1503
1510 1510 1511 1511 1511 1511 1511 1511 1512 1512 1512 1512 1512 1512 1511 1511 1511 1511 1511 1512 1512 1512 1512 1512 1511 1511 1511 1510 1509 1509 1508 1507 1507 1506 1505 1504 1503 1502 1502 1501 1500 1500 1500
1506 1506 1506 1506 1506 1506 1506 1507 1507 1507 1507 1508 1508 1508 1507 1507 1507 1507 1507 1507 1507 1507 1508 1508 1508 1507 1507 1506 1506 1505 1505 1504 1503 1503 1502 1501 1501 1500 1499 1498 1498 1497 1497
1502 1502 1502 1502 1502 1502 1502 1502 1502 1503 1503 1503 1503 1503 1503 1503 1503 1504 1504 1504 1503 1503 1503 1503 1503 1503 1503 1503 1502 1502 1501 1501 1500 1499 1499 1498 1497 1497 1496 1495 1494 1494 1494
1498 1498 1498 1498 1498 1498 1497 1498 1498 1498 1498 1498 1498 1499 1499 1499 1499 1499 1500 1499 1499 1499 1499 1499 1499 1498 1498 1498 1498 1498 1498 1497 1497 1496 1496 1495 1494 1493 1493 1492 1491 1491 1490
1494 1494 1494 1494 1494 1494 1493 1493 1493 1494 1494 1494 1494 1494 1494 1494 1494 1494 1495 1495 1495 1495 1495 1495 1494 1494 1494 1494 1494 1494 1494 1493 1493 1493 1492 1491 1491 1490 1490 1489 1488 1488 1487